CW8371 Weather Reports


time (UTC)temp
C
wind
direction
speed
KPH
gust
KPH
rain 1hr
cm
rain 24hr
cm
rain mn
cm
humidity
%
barometer
mb
20210613222506 27 173 1.6 16.1 0.00 0.00 0.00 49 1009.4
20210613222006 27 185 1.6 12.9 0.00 0.00 0.00 49 1009.4
20210613221506 27 176 3.2 19.3 0.00 0.00 0.00 49 1009.5
20210613221005 27 169 3.2 19.3 0.00 0.00 0.00 50 1009.4
20210613220505 27 190 3.2 20.9 0.00 0.00 0.00 49 1009.4
20210613220006 27 203 4.8 20.9 0.00 0.00 0.00 49 1009.4
20210613215505 27 183 4.8 19.3 0.00 0.00 0.00 50 1009.5
20210613215005 27 178 6.4 19.3 0.00 0.00 0.00 49 1009.6
20210613214506 27 211 4.8 19.3 0.00 0.00 0.00 48 1009.5
20210613214005 27 245 3.2 16.1 0.00 0.00 0.00 50 1009.6
20210613213505 27 244 3.2 16.1 0.00 0.00 0.00 50 1009.6
20210613213006 27 239 1.6 16.1 0.00 0.00 0.00 49 1009.5
20210613212506 26 232 1.6 8.0 0.00 0.00 0.00 51 1009.7
20210613212006 26 232 1.6 6.4 0.00 0.00 0.00 51 1009.6
20210613211506 26 232 1.6 6.4 0.00 0.00 0.00 53 1009.7
20210613211006 26 232 1.6 8.0 0.00 0.00 0.00 51 1009.7
20210613210506 26 233 3.2 11.3 0.00 0.00 0.00 51 1009.6
20210613210006 26 234 3.2 14.5 0.00 0.00 0.00 49 1009.7
20210613205506 26 235 1.6 14.5 0.00 0.00 0.00 50 1009.7
20210613205005 26 238 1.6 6.4 0.00 0.00 0.00 50 1009.8
20210613204506 26 243 1.6 12.9 0.00 0.00 0.00 49 1009.8
20210613204006 27 246 1.6 12.9 0.00 0.00 0.00 47 1009.7
20210613203505 27 248 1.6 8.0 0.00 0.00 0.00 50 1009.8
20210613203006 27 241 4.8 22.5 0.00 0.00 0.00 47 1009.8
20210613202506 27 232 4.8 22.5 0.00 0.00 0.00 47 1009.9
20210613202005 27 227 4.8 16.1 0.00 0.00 0.00 47 1009.8
20210613201506 27 229 3.2 16.1 0.00 0.00 0.00 48 1009.7
20210613201005 27 235 3.2 9.7 0.00 0.00 0.00 47 1009.9
20210613200506 28 242 3.2 11.3 0.00 0.00 0.00 47 1009.8
20210613200006 27 235 3.2 12.9 0.00 0.00 0.00 47 1009.8
20210613195506 27 221 4.8 14.5 0.00 0.00 0.00 48 1009.8
20210613195005 28 203 4.8 14.5 0.00 0.00 0.00 47 1009.9
20210613194505 28 181 4.8 19.3 0.00 0.00 0.00 48 1009.9
20210613194006 28 177 3.2 19.3 0.00 0.00 0.00 49 1009.9
20210613193506 27 194 1.6 11.3 0.00 0.00 0.00 47 1009.9
20210613193006 27 201 1.6 11.3 0.00 0.00 0.00 48 1009.9
20210613192505 26 200 4.8 14.5 0.00 0.00 0.00 48 1010.1
20210613192005 27 212 4.8 14.5 0.00 0.00 0.00 48 1009.9
20210613191506 27 240 4.8 17.7 0.00 0.00 0.00 48 1010.1
20210613191006 27 243 4.8 17.7 0.00 0.00 0.00 46 1010.1
20210613190506 27 245 3.2 9.7 0.00 0.00 0.00 47 1010.1
20210613190006 27 250 1.6 8.0 0.00 0.00 0.00 48 1010.0
20210613185506 27 251 3.2 8.0 0.00 0.00 0.00 50 1010.1
20210613184505 27 202 6.4 16.1 0.00 0.00 0.00 48 1010.2
20210613184005 26 179 6.4 16.1 0.00 0.00 0.00 50 1010.2
20210613183505 26 227 4.8 12.9 0.00 0.00 0.00 49 1010.2
20210613183005 26 257 3.2 11.3 0.00 0.00 0.00 49 1010.2
20210613182505 26 205 3.2 6.4 0.00 0.00 0.00 47 1010.2
20210613181504 27 233 3.2 14.5 0.00 0.00 0.00 50 1010.3
20210613181004 27 234 1.6 11.3 0.00 0.00 0.00 49 1010.4
20210613180504 27 236 1.6 14.5 0.00 0.00 0.00 51 1010.3
20210613180005 26 235 3.2 14.5 0.00 0.00 0.00 51 1010.4
20210613175504 26 227 1.6 12.9 0.00 0.00 0.00 51 1010.4
20210613175004 26 223 1.6 11.3 0.00 0.00 0.00 57 1010.5
20210613174504 25 273 3.2 11.3 0.00 0.00 0.00 51 1010.4
20210613174004 25 287 3.2 11.3 0.00 0.00 0.00 53 1010.4
20210613173504 25 288 1.6 8.0 0.00 0.00 0.00 51 1010.7
20210613173004 25 291 1.6 11.3 0.00 0.00 0.00 51 1010.6
20210613172504 25 292 1.6 11.3 0.00 0.00 0.00 48 1010.5
20210613172004 26 270 3.2 19.3 0.00 0.00 0.00 49 1010.6
20210613171504 26 210 3.2 19.3 0.00 0.00 0.00 47 1010.5
20210613171004 26 190 3.2 9.7 0.00 0.00 0.00 48 1010.7
20210613170504 26 215 3.2 9.7 0.00 0.00 0.00 49 1010.7
20210613170005 26 216 3.2 9.7 0.00 0.00 0.00 51 1010.7
20210613165504 26 213 3.2 11.3 0.00 0.00 0.00 51 1010.6
20210613165004 26 234 3.2 11.3 0.00 0.00 0.00 51 1010.6
20210613164504 26 258 3.2 11.3 0.00 0.00 0.00 51 1010.6
20210613164004 25 271 3.2 12.9 0.00 0.00 0.00 52 1010.6
20210613163504 25 269 4.8 17.7 0.00 0.00 0.00 52 1010.7
20210613163004 25 254 6.4 17.7 0.00 0.00 0.00 52 1010.9
20210613162504 26 238 4.8 14.5 0.00 0.00 0.00 48 1010.9
20210613162004 25 237 3.2 14.5 0.00 0.00 0.00 50 1010.9
20210613161504 26 224 1.6 9.7 0.00 0.00 0.00 50 1011.0
20210613161004 26 210 3.2 9.7 0.00 0.00 0.00 51 1010.9
20210613160504 26 203 3.2 12.9 0.00 0.00 0.00 50 1010.9
20210613160004 26 192 3.2 12.9 0.00 0.00 0.00 50 1011.0
20210613155504 25 208 3.2 12.9 0.00 0.00 0.00 53 1011.0
20210613155005 25 222 3.2 12.9 0.00 0.00 0.00 51 1011.1
20210613154505 25 235 4.8 25.7 0.00 0.00 0.00 52 1011.0
20210613154005 25 232 6.4 25.7 0.00 0.00 0.00 50 1011.1
20210613153504 25 224 4.8 16.1 0.00 0.00 0.00 49 1011.1
20210613153004 25 235 3.2 12.9 0.00 0.00 0.00 51 1011.1
20210613152504 25 250 3.2 12.9 0.00 0.00 0.00 53 1011.1
20210613152004 25 257 3.2 12.9 0.00 0.00 0.00 56 1011.2
20210613151504 25 257 0.0 6.4 0.00 0.00 0.00 53 1011.2
20210613151004 25 257 1.6 8.0 0.00 0.00 0.00 56 1011.2
20210613150504 25 257 3.2 11.3 0.00 0.00 0.00 57 1011.2
20210613150004 25 263 3.2 16.1 0.00 0.00 0.00 59 1011.2
20210613145504 25 276 4.8 16.1 0.00 0.00 0.00 56 1011.1
20210613145004 25 286 4.8 16.1 0.00 0.00 0.00 53 1011.1
20210613144504 25 287 4.8 16.1 0.00 0.00 0.00 53 1011.1
20210613144004 24 281 4.8 17.7 0.00 0.00 0.00 59 1011.2
20210613143504 24 275 4.8 17.7 0.00 0.00 0.00 57 1011.1
20210613143004 24 274 1.6 12.9 0.00 0.00 0.00 62 1011.3
20210613142504 24 279 0.0 11.3 0.00 0.00 0.00 62 1011.2
20210613142006 24 0 0.0 0.0 0.00 0.00 0.00 66 1011.2
20210613141504 24 0 0.0 0.0 0.00 0.00 0.00 65 1011.2
20210613141005 23 0 0.0 0.0 0.00 0.00 0.00 66 1011.1
20210613140504 23 0 0.0 0.0 0.00 0.00 0.00 67 1011.2
20210613140004 23 0 0.0 0.0 0.00 0.00 0.00 69 1011.2
20210613135504 23 0 0.0 0.0 0.00 0.00 0.00 71 1011.3
20210613135004 22 0 0.0 0.0 0.00 0.00 0.00 74 1011.2
20210613134504 22 0 0.0 0.0 0.00 0.00 0.00 74 1011.2
20210613134004 22 0 0.0 0.0 0.00 0.00 0.00 75 1011.2
20210613133504 22 0 0.0 0.0 0.00 0.00 0.00 76 1011.3
20210613133004 21 0 0.0 0.0 0.00 0.00 0.00 76 1011.3
20210613132504 21 0 0.0 0.0 0.00 0.00 0.00 78 1011.4
20210613132004 21 0 0.0 0.0 0.00 0.00 0.00 79 1011.5
20210613131504 20 0 0.0 0.0 0.00 0.00 0.00 80 1011.6
20210613131004 20 0 0.0 0.0 0.00 0.00 0.00 82 1011.6
20210613130504 20 0 0.0 0.0 0.00 0.00 0.00 82 1011.6
20210613130004 19 0 0.0 0.0 0.00 0.00 0.00 84 1011.6
20210613125504 18 0 0.0 0.0 0.00 0.00 0.00 86 1011.6
20210613125004 18 0 0.0 0.0 0.00 0.00 0.00 88 1011.6
20210613124504 17 0 0.0 0.0 0.00 0.00 0.00 89 1011.7
20210613124004 17 0 0.0 0.0 0.00 0.00 0.00 90 1011.7
20210613123504 16 0 0.0 0.0 0.00 0.00 0.00 90 1011.6
20210613123005 15 0 0.0 0.0 0.00 0.00 0.00 91 1011.6
20210613122504 15 0 0.0 0.0 0.00 0.00 0.00 92 1011.6
20210613122005 14 0 0.0 0.0 0.00 0.00 0.00 93 1011.6
20210613121504 13 0 0.0 0.0 0.00 0.00 0.00 93 1011.6
20210613121004 13 0 0.0 0.0 0.00 0.00 0.00 93 1011.6
20210613120504 13 0 0.0 0.0 0.00 0.00 0.00 93 1011.6
20210613120004 13 0 0.0 0.0 0.00 0.00 0.00 94 1011.6
20210613115504 13 0 0.0 0.0 0.00 0.00 0.00 94 1011.6
20210613115004 13 0 0.0 0.0 0.00 0.00 0.00 94 1011.6
20210613114504 12 0 0.0 0.0 0.00 0.00 0.00 94 1011.6
20210613114005 12 0 0.0 0.0 0.00 0.00 0.00 94 1011.6
20210613113504 12 0 0.0 0.0 0.00 0.00 0.00 94 1011.7
20210613113005 11 0 0.0 0.0 0.00 0.00 0.00 94 1011.7
20210613112504 11 0 0.0 0.0 0.00 0.00 0.00 94 1011.7
20210613112004 11 0 0.0 0.0 0.00 0.00 0.00 94 1011.7
20210613111504 11 0 0.0 0.0 0.00 0.00 0.00 94 1011.7
20210613111004 11 0 0.0 0.0 0.00 0.00 0.00 94 1011.7
20210613110504 10 0 0.0 0.0 0.00 0.00 0.00 93 1011.8
20210613110005 10 0 0.0 0.0 0.00 0.00 0.00 93 1011.8
20210613105504 10 0 0.0 0.0 0.00 0.00 0.00 94 1011.7
20210613105004 10 0 0.0 0.0 0.00 0.00 0.00 93 1011.6
20210613104504 10 0 0.0 0.0 0.00 0.00 0.00 93 1011.5
20210613104004 10 0 0.0 0.0 0.00 0.00 0.00 93 1011.4
20210613103504 10 0 0.0 0.0 0.00 0.00 0.00 93 1011.4
20210613103005 10 0 0.0 0.0 0.00 0.00 0.00 94 1011.3
20210613102504 10 0 0.0 0.0 0.00 0.00 0.00 93 1011.2
20210613102004 10 0 0.0 0.0 0.00 0.00 0.00 93 1011.2
20210613101504 10 0 0.0 0.0 0.00 0.00 0.00 93 1011.2
20210613101004 9 0 0.0 0.0 0.00 0.00 0.00 93 1011.2
20210613100505 9 0 0.0 0.0 0.00 0.03 0.00 93 1011.1
20210613100005 9 0 0.0 0.0 0.00 0.05 0.00 93 1011.0
20210613095504 9 0 0.0 0.0 0.00 0.08 0.00 93 1010.9
20210613095005 9 0 0.0 0.0 0.00 0.13 0.00 93 1010.9
20210613094504 9 0 0.0 0.0 0.00 0.13 0.00 93 1010.9
20210613094004 9 0 0.0 0.0 0.00 0.18 0.00 93 1010.8
20210613093505 9 0 0.0 0.0 0.00 0.20 0.00 93 1010.7
20210613093005 9 0 0.0 0.0 0.00 0.20 0.00 93 1010.6
20210613092504 10 0 0.0 0.0 0.00 0.20 0.00 93 1010.7
20210613092004 10 0 0.0 0.0 0.00 0.20 0.00 93 1010.7
20210613091504 10 0 0.0 0.0 0.00 0.23 0.00 93 1010.7
20210613091004 10 0 0.0 0.0 0.00 0.23 0.00 93 1010.6
20210613090504 10 0 0.0 0.0 0.00 0.23 0.00 93 1010.7
20210613090005 10 0 0.0 0.0 0.00 0.23 0.00 93 1010.6
20210613085504 10 0 0.0 0.0 0.00 0.23 0.00 93 1010.7
20210613085004 10 0 0.0 0.0 0.00 0.23 0.00 93 1010.7
20210613084505 10 0 0.0 0.0 0.00 0.25 0.00 93 1010.7
20210613084004 10 0 0.0 0.0 0.00 0.28 0.00 93 1010.7
20210613083504 10 0 0.0 0.0 0.00 0.30 0.00 93 1010.8
20210613083004 10 0 0.0 0.0 0.00 0.36 0.00 92 1010.7
20210613082505 10 0 0.0 0.0 0.00 0.41 0.00 92 1010.7
20210613082005 10 0 0.0 0.0 0.00 0.48 0.00 93 1010.6
20210613081504 10 0 0.0 0.0 0.00 0.53 0.00 93 1010.6
20210613081004 10 0 0.0 0.0 0.00 0.58 0.00 93 1010.6
20210613080504 10 0 0.0 0.0 0.00 0.64 0.00 93 1010.5
20210613080004 10 0 0.0 0.0 0.00 0.66 0.00 92 1010.6
20210613075505 10 0 0.0 0.0 0.00 0.69 0.00 92 1010.5
20210613075005 10 0 0.0 0.0 0.00 0.71 0.00 92 1010.5
20210613074504 10 0 0.0 0.0 0.00 0.74 0.00 92 1010.6
20210613074004 10 0 0.0 0.0 0.00 0.76 0.00 92 1010.6
20210613073504 10 0 0.0 0.0 0.00 0.76 0.00 92 1010.6
20210613073004 10 0 0.0 0.0 0.00 0.79 0.00 92 1010.7
20210613072504 10 0 0.0 0.0 0.00 0.79 0.00 92 1010.7
20210613072005 11 0 0.0 0.0 0.00 0.79 0.00 92 1010.7
20210613071504 11 0 0.0 0.0 0.00 0.79 0.00 92 1010.8
20210613071004 11 0 0.0 0.0 0.00 0.81 0.00 92 1010.7
20210613070504 11 0 0.0 0.0 0.00 0.81 0.00 92 1010.7
20210613070005 11 0 0.0 0.0 0.00 0.81 0.00 92 1010.6
20210613065504 11 0 0.0 0.0 0.00 0.84 0.00 92 1010.7
20210613065005 11 0 0.0 0.0 0.00 0.84 0.00 92 1010.7
20210613064505 11 0 0.0 0.0 0.00 0.84 0.00 92 1010.6
20210613064004 11 0 0.0 0.0 0.00 0.84 0.00 92 1010.7
20210613063504 11 0 0.0 0.0 0.00 0.89 0.00 92 1010.7
20210613063005 11 0 0.0 0.0 0.00 0.89 0.00 92 1010.8
20210613062504 11 0 0.0 0.0 0.00 0.91 0.00 92 1010.9
20210613062005 11 0 0.0 0.0 0.00 0.91 0.00 92 1010.9
20210613061505 11 0 0.0 0.0 0.00 0.91 0.00 92 1010.9
20210613061004 11 0 0.0 0.0 0.00 0.94 0.00 91 1010.9
20210613060504 11 0 0.0 0.0 0.00 0.97 0.00 91 1010.9
20210613060004 12 0 0.0 0.0 0.00 0.99 0.00 91 1010.9
20210613055505 12 0 0.0 0.0 0.00 0.99 0.00 91 1010.9
20210613055004 12 0 0.0 0.0 0.00 0.99 0.00 91 1010.8
20210613054505 12 0 0.0 0.0 0.00 0.99 0.00 91 1011.0
20210613054004 12 0 0.0 0.0 0.00 0.99 0.00 91 1010.8
20210613053504 12 0 0.0 0.0 0.00 0.99 0.00 91 1010.6
20210613053004 12 0 0.0 0.0 0.00 0.99 0.00 91 1010.9
20210613052504 12 0 0.0 0.0 0.00 0.99 0.00 91 1010.9
20210613052005 12 0 0.0 0.0 0.00 0.99 0.00 91 1011.0
20210613051504 12 0 0.0 0.0 0.00 0.99 0.00 91 1011.0
20210613051005 12 0 0.0 0.0 0.00 0.99 0.00 90 1011.0
20210613050504 13 0 0.0 0.0 0.00 0.99 0.00 90 1010.9
20210613050005 13 0 0.0 0.0 0.00 0.99 0.00 90 1010.8
20210613045504 13 0 0.0 0.0 0.00 0.99 0.00 90 1010.9
20210613045005 13 0 0.0 0.0 0.00 0.99 0.00 90 1010.8
20210613044504 13 0 0.0 0.0 0.00 0.99 0.00 90 1010.7
20210613044004 13 0 0.0 0.0 0.00 0.99 0.00 90 1010.8
20210613043504 13 0 0.0 0.0 0.00 0.99 0.00 90 1010.8
20210613043004 13 0 0.0 0.0 0.00 0.99 0.00 89 1010.8
20210613042505 13 0 0.0 0.0 0.00 1.02 0.00 89 1010.8
20210613042004 13 0 0.0 0.0 0.00 1.02 0.00 89 1010.8
20210613041504 13 0 0.0 0.0 0.00 1.02 0.00 89 1010.7
20210613041004 14 0 0.0 0.0 0.00 1.04 0.00 89 1010.7
20210613040505 14 0 0.0 0.0 0.00 1.04 0.00 89 1010.8
20210613040007 14 0 0.0 0.0 0.00 1.04 0.00 88 1010.8
20210613035505 14 0 0.0 0.0 0.00 1.04 1.04 88 1010.8
20210613035004 14 0 0.0 0.0 0.00 1.07 1.04 88 1010.7
20210613034504 15 0 0.0 0.0 0.00 1.07 1.04 88 1010.8
20210613034004 15 0 0.0 0.0 0.00 1.09 1.04 88 1010.8
20210613033505 15 0 0.0 0.0 0.00 1.09 1.04 87 1010.7
20210613033004 15 0 0.0 0.0 0.00 1.09 1.04 87 1010.7
20210613032504 15 0 0.0 0.0 0.00 1.09 1.04 87 1010.7
20210613032005 15 0 0.0 0.0 0.00 1.09 1.04 87 1010.7
20210613031505 15 0 0.0 0.0 0.00 1.09 1.04 87 1010.6
20210613031004 15 0 0.0 0.0 0.00 1.12 1.04 87 1010.5
20210613030504 15 0 0.0 0.0 0.00 1.12 1.04 87 1010.5
20210613030005 15 0 0.0 0.0 0.00 1.12 1.04 87 1010.5
20210613025504 15 0 0.0 0.0 0.00 1.12 1.04 86 1010.4
20210613025004 15 0 0.0 0.0 0.00 1.12 1.04 86 1010.5
20210613024504 15 0 0.0 0.0 0.00 1.12 1.04 86 1010.4
20210613024005 15 0 0.0 0.0 0.00 1.12 1.04 86 1010.4
20210613023505 16 0 0.0 0.0 0.00 1.12 1.04 85 1010.4
20210613023004 16 0 0.0 0.0 0.00 1.12 1.04 85 1010.4
20210613022505 16 0 0.0 0.0 0.00 1.12 1.04 85 1010.4
20210613022005 16 0 0.0 0.0 0.00 1.12 1.04 84 1010.3
20210613021505 16 0 0.0 0.0 0.00 1.12 1.04 84 1010.3
20210613021004 16 0 0.0 0.0 0.00 1.12 1.04 84 1010.3
20210613020504 16 0 0.0 0.0 0.00 1.12 1.04 84 1010.3
20210613020004 16 0 0.0 0.0 0.00 1.12 1.04 83 1010.3
20210613015505 16 0 0.0 0.0 0.00 1.12 1.04 83 1010.2
20210613015005 16 0 0.0 0.0 0.00 1.12 1.04 82 1010.2
20210613014505 16 0 0.0 0.0 0.00 1.12 1.04 82 1010.1
20210613014005 16 0 0.0 0.0 0.00 1.12 1.04 83 1010.1
20210613013505 17 0 0.0 0.0 0.00 1.12 1.04 82 1009.9
20210613013005 17 0 0.0 0.0 0.00 1.12 1.04 81 1010.1
20210613012504 17 0 0.0 0.0 0.00 1.12 1.04 81 1009.9
20210613012004 17 0 0.0 0.0 0.00 1.12 1.04 80 1009.9
20210613011504 17 0 0.0 0.0 0.00 1.12 1.04 80 1009.8
20210613011004 17 0 0.0 0.0 0.00 1.12 1.04 79 1009.7
20210613010504 17 0 0.0 0.0 0.00 1.12 1.04 79 1009.6
20210613010005 18 0 0.0 0.0 0.00 1.12 1.04 77 1009.6
20210613005505 18 0 0.0 0.0 0.00 1.12 1.04 77 1009.6
20210613005004 18 0 0.0 0.0 0.00 1.12 1.04 76 1009.5
20210613004505 18 0 0.0 0.0 0.00 1.12 1.04 75 1009.4
20210613004005 18 0 0.0 0.0 0.00 1.12 1.04 73 1009.4